Location: Colonia Mina de C?rbuni
(46.1667°N, 22.7167°E)
Time: 16:42:33
(UTC+00:00)

Vanguard 1 Rocket - Visible Passes

Search period start: 13 April 2024 00:00
Search period end: 23 April 2024 00:00
Orbit: 652 x 4220 km, 34.3° (Epoch: 12 April)

Date Brightness Start Highest point End Pass type
(mag) Time Alt. Az. Time Alt. Az. Time Alt. Az.
13 Apr 10.8 02:17:10 17° WSW 02:22:25 19° SW 02:36:46 10° S visible
13 Apr 9.2 17:44:20 10° SSW 17:49:16 22° SE 17:56:36 10° E visible
13 Apr 9.0 20:05:51 10° WSW 20:13:40 45° S 20:15:39 42° SSE visible
13 Apr 10.1 22:29:40 10° W 22:53:27 21° SE 22:59:31 10° SE visible
14 Apr 10.7 01:10:49 26° SSW 01:10:49 26° SSW 01:26:10 10° SSE visible
14 Apr 8.9 18:55:24 10° SW 19:01:46 36° SSE 19:07:41 22° ESE visible
14 Apr 9.4 21:18:23 10° WSW 21:47:06 - ESE 21:24:53 41° SSW visible
15 Apr 10.8 00:04:27 23° SSE 00:04:27 23° SSE 00:13:23 10° SSE visible
15 Apr 11.0 02:21:49 13° SW 02:23:15 14° SW 02:32:29 10° SSW visible
15 Apr 9.0 17:45:28 10° SSW 17:50:25 25° SSE 17:57:58 10° E visible
15 Apr 9.0 20:07:29 10° WSW 20:14:59 44° S 20:16:51 41° SSE visible
15 Apr 10.2 22:31:29 10° W 22:58:04 12° SE 22:59:18 10° SE visible
16 Apr 11.0 01:15:25 18° SSW 01:15:25 18° SSW 01:24:02 10° S visible
16 Apr 8.8 18:56:55 10° SW 19:03:04 37° SSE 19:08:47 23° ESE visible
16 Apr 9.4 21:20:07 10° WSW 21:25:59 37° SW 21:25:59 37° SW visible
17 Apr 10.9 00:08:56 14° SSE 00:08:56 14° SSE 00:12:14 10° SSE visible
17 Apr 8.8 17:46:44 10° SSW 17:51:39 27° SSE 17:59:15 10° ESE visible
17 Apr 9.0 20:09:09 10° WSW 20:16:21 41° S 20:17:54 39° SSE visible
17 Apr 10.3 22:33:26 10° WSW 23:02:22 - SE 22:35:06 16° WSW visible
18 Apr 11.3 01:19:43 11° S 01:19:43 11° S 01:20:39 10° S visible
18 Apr 8.7 18:58:30 10° SW 19:04:26 37° S 19:09:48 23° ESE visible
18 Apr 9.5 21:21:56 10° WSW 21:27:00 31° SW 21:27:00 31° SW visible
19 Apr11.000:13:02SSE00:13:02SSE23:44:11Wvisible
19 Apr 8.7 17:48:09 10° SW 17:52:58 29° SSE 18:00:27 10° ESE visible
19 Apr 9.0 20:10:54 10° WSW 20:17:46 38° S 20:18:54 37° S visible
19 Apr 10.4 22:35:35 10° WSW 22:36:05 12° WSW 22:36:05 12° WSW visible
20 Apr 8.7 19:00:09 10° WSW 19:05:52 35° S 19:10:48 23° SE visible
20 Apr 9.7 21:23:53 10° WSW 21:27:59 25° SW 21:27:59 25° SW visible
21 Apr 8.6 17:49:40 10° SW 17:54:21 29° SSE 18:01:35 10° ESE visible
21 Apr 9.1 20:12:43 10° WSW 20:19:13 33° S 20:19:54 33° S visible
22 Apr 8.8 19:01:53 10° WSW 19:07:20 33° S 19:11:48 22° SE visible
22 Apr 9.8 21:26:02 10° WSW 21:29:01 20° SW 21:29:01 20° SW visible
